owner,sensor,date,latitude,longitude,vertical_datum,direction_of_sea_water_velocity,sea_water_speed,upward_sea_water_velocity,qcFlag 
TABS,ioos:station:wmo:42051:1,2011-09-01T00:00:00Z,29.6350,-93.6417,2.0,264.8294453,8.544764479,-99999.0,'11133222,11111222,99999999' 
TABS,ioos:station:wmo:42051:1,2011-09-01T00:30:00Z,29.6350,-93.6417,2.0,259.2982534,7.754869438,-99999.0,'11133222,11111222,99999999' 
TABS,ioos:station:wmo:42051:1,2011-09-01T01:00:00Z,29.6350,-93.6417,2.0,248.1414698,9.373905269,-99999.0,'11133222,11111222,99999999' 
TABS,ioos:station:wmo:42051:1,2011-09-01T01:30:00Z,29.6350,-93.6417,2.0,275.5560695,5.88765658,-99999.0,'11133222,11111222,99999999' 
TABS,ioos:station:wmo:42051:1,2011-09-01T02:00:00Z,29.6350,-93.6417,2.0,224.0566313,10.31101353,-99999.0,'11111222,11111222,99999999' 
TABS,ioos:station:wmo:42051:1,2011-09-01T02:30:00Z,29.6350,-93.6417,2.0,228.9660696,9.200282604,-99999.0,'11133222,11111222,99999999' 
TABS,ioos:station:wmo:42051:1,2011-09-01T03:00:00Z,29.6350,-93.6417,2.0,220.0898651,6.444175665,-99999.0,'11133222,11111222,99999999' 
TABS,ioos:station:wmo:42051:1,2011-09-01T03:30:00Z,29.6350,-93.6417,2.0,224.9996843,9.998489886,-99999.0,'11133222,11111222,99999999' 
TABS,ioos:station:wmo:42051:1,2011-09-01T04:00:00Z,29.6350,-93.6417,2.0,244.9728502,6.996942189,-99999.0,'11133222,11111222,99999999' 
TABS,ioos:station:wmo:42051:1,2011-09-01T04:30:00Z,29.6350,-93.6417,2.0,238.9594571,8.99853877,-99999.0,'11133222,11111222,99999999' 
TABS,ioos:station:wmo:42051:1,2011-09-01T05:00:00Z,29.6350,-93.6417,2.0,244.9728502,6.996942189,-99999.0,'11133222,11111222,99999999' 
TABS,ioos:station:wmo:42051:1,2011-09-01T05:30:00Z,29.6350,-93.6417,2.0,244.9728502,6.996942189,-99999.0,'11133222,11111222,99999999' 
TABS,ioos:station:wmo:42051:1,2011-09-01T06:00:00Z,29.6350,-93.6417,2.0,275.0020736,6.996642052,-99999.0,'11133222,11111222,99999999' 
TABS,ioos:station:wmo:42051:1,2011-09-01T06:30:00Z,29.6350,-93.6417,2.0,237.0135442,6.998071163,-99999.0,'11133222,11111222,99999999' 
TABS,ioos:station:wmo:42051:1,2011-09-01T07:00:00Z,29.6350,-93.6417,2.0,245.0288882,9.00142211,-99999.0,'11133222,11111222,99999999' 
TABS,ioos:station:wmo:42051:1,2011-09-01T07:30:00Z,29.6350,-93.6417,2.0,258.0027078,8.996493761,-99999.0,'11133222,11111222,99999999' 
TABS,ioos:station:wmo:42051:1,2011-09-01T08:00:00Z,29.6350,-93.6417,2.0,249.0107331,10.99984091,-99999.0,'11111222,11111222,99999999' 
TABS,ioos:station:wmo:42051:1,2011-09-01T08:30:00Z,29.6350,-93.6417,2.0,254.9910649,11.00542593,-99999.0,'11111222,11111222,99999999' 
TABS,ioos:station:wmo:42051:1,2011-09-01T09:00:00Z,29.6350,-93.6417,2.0,253.9755069,9.998484885,-99999.0,'11133222,11111222,99999999' 
TABS,ioos:station:wmo:42051:1,2011-09-01T09:30:00Z,29.6350,-93.6417,2.0,249.0107331,10.99984091,-99999.0,'11111222,11111222,99999999' 
TABS,ioos:station:wmo:42051:1,2011-09-01T10:00:00Z,29.6350,-93.6417,2.0,250.9911323,12.00460745,-99999.0,'11111222,11111222,99999999' 
TABS,ioos:station:wmo:42051:1,2011-09-01T10:30:00Z,29.6350,-93.6417,2.0,248.98856,14.00090354,-99999.0,'11111222,11111222,99999999' 
TABS,ioos:station:wmo:42051:1,2011-09-01T11:00:00Z,29.6350,-93.6417,2.0,241.9964481,17.99707198,-99999.0,'11111222,11111222,99999999' 
TABS,ioos:station:wmo:42051:1,2011-09-01T11:30:00Z,29.6350,-93.6417,2.0,254.0109428,20.00382463,-99999.0,'11111222,11111222,99999999' 
TABS,ioos:station:wmo:42051:1,2011-09-01T12:00:00Z,29.6350,-93.6417,2.0,243.0151906,10.99727694,-99999.0,'11111222,11111222,99999999' 
TABS,ioos:station:wmo:42051:1,2011-09-01T12:30:00Z,29.6350,-93.6417,2.0,245.0120404,12.99648029,-99999.0,'11111222,11111222,99999999' 
TABS,ioos:station:wmo:42051:1,2011-09-01T13:00:00Z,29.6350,-93.6417,2.0,228.005368,12.00197067,-99999.0,'11111222,11111222,99999999' 
TABS,ioos:station:wmo:42051:1,2011-09-01T13:30:00Z,29.6350,-93.6417,2.0,244.9728502,6.996942189,-99999.0,'11133222,11111222,99999999' 
TABS,ioos:station:wmo:42051:1,2011-09-01T14:00:00Z,29.6350,-93.6417,2.0,230.9924596,16.99982647,-99999.0,'11111222,11111222,99999999' 
TABS,ioos:station:wmo:42051:1,2011-09-01T14:30:00Z,29.6350,-93.6417,2.0,239.9989215,19.99956,-99999.0,'11111222,11111222,99999999' 
TABS,ioos:station:wmo:42051:1,2011-09-01T15:00:00Z,29.6350,-93.6417,2.0,223.9866043,15.99725601,-99999.0,'11111222,11111222,99999999' 
TABS,ioos:station:wmo:42051:1,2011-09-01T15:30:00Z,29.6350,-93.6417,2.0,296.0056892,37.99708015,-99999.0,'11111222,11111222,99999999' 
TABS,ioos:station:wmo:42051:1,2011-09-01T16:00:00Z,29.6350,-93.6417,2.0,282.0017826,39.00249479,-99999.0,'11111222,11111222,99999999' 
TABS,ioos:station:wmo:42051:1,2011-09-01T16:30:00Z,29.6350,-93.6417,2.0,278.9974004,32.9959649,-99999.0,'11111222,11111222,99999999' 
TABS,ioos:station:wmo:42051:1,2011-09-01T17:00:00Z,29.6350,-93.6417,2.0,286.9916954,31.00332402,-99999.0,'11111222,11111222,99999999' 
TABS,ioos:station:wmo:42051:1,2011-09-01T17:30:00Z,29.6350,-93.6417,2.0,281.0001864,24.99928999,-99999.0,'11111222,11111222,99999999' 
TABS,ioos:station:wmo:42051:1,2011-09-01T18:00:00Z,29.6350,-93.6417,2.0,282.0024554,18.99523361,-99999.0,'11111222,11111222,99999999' 
TABS,ioos:station:wmo:42051:1,2011-09-01T18:30:00Z,29.6350,-93.6417,2.0,20.00570793,23.99805409,-99999.0,'11111222,11111222,99999999' 
TABS,ioos:station:wmo:42051:1,2011-09-01T19:00:00Z,29.6350,-93.6417,2.0,297.0138572,23.9982166,-99999.0,'11111222,11111222,99999999' 
TABS,ioos:station:wmo:42051:1,2011-09-01T19:30:00Z,29.6350,-93.6417,2.0,295.9945694,21.99505626,-99999.0,'11111222,11111222,99999999' 
TABS,ioos:station:wmo:42051:1,2011-09-01T20:00:00Z,29.6350,-93.6417,2.0,292.9947913,14.0026069,-99999.0,'11111222,11111222,99999999' 
TABS,ioos:station:wmo:42051:1,2011-09-01T20:30:00Z,29.6350,-93.6417,2.0,337.9977739,8.995137575,-99999.0,'11133222,11111222,99999999' 
TABS,ioos:station:wmo:42051:1,2011-09-01T21:30:00Z,29.6350,-93.6417,2.0,289.7313502,44.46034863,-99999.0,'11111222,11111222,99999999' 
TABS,ioos:station:wmo:42051:1,2011-09-01T22:00:00Z,29.6350,-93.6417,2.0,287.6469828,42.2899799,-99999.0,'11111222,11111222,99999999' 
TABS,ioos:station:wmo:42051:1,2011-09-01T22:30:00Z,29.6350,-93.6417,2.0,281.7501739,44.19607335,-99999.0,'11111222,11111222,99999999' 
TABS,ioos:station:wmo:42051:1,2011-09-01T23:00:00Z,29.6350,-93.6417,2.0,280.2104194,37.29050952,-99999.0,'11111222,11111222,99999999' 
TABS,ioos:station:wmo:42051:1,2011-09-01T23:30:00Z,29.6350,-93.6417,2.0,281.6251801,41.04184328,-99999.0,'11111222,11111222,99999999' 
TABS,ioos:station:wmo:42051:1,2011-09-02T00:00:00Z,29.6350,-93.6417,2.0,284.1985419,33.47247526,-99999.0,'11111222,11111222,99999999' 
TABS,ioos:station:wmo:42051:1,2011-09-02T00:30:00Z,29.6350,-93.6417,2.0,287.2392982,29.69393204,-99999.0,'11111222,11111222,99999999' 
TABS,ioos:station:wmo:42051:1,2011-09-02T01:00:00Z,29.6350,-93.6417,2.0,284.5482599,33.67983967,-99999.0,'11111222,11111222,99999999' 
TABS,ioos:station:wmo:42051:1,2011-09-02T01:30:00Z,29.6350,-93.6417,2.0,266.5882023,34.45104643,-99999.0,'11111222,11111222,99999999' 
TABS,ioos:station:wmo:42051:1,2011-09-02T02:00:00Z,29.6350,-93.6417,2.0,267.8346322,36.26588617,-99999.0,'11111222,11111222,99999999' 
TABS,ioos:station:wmo:42051:1,2011-09-02T02:30:00Z,29.6350,-93.6417,2.0,264.7907606,36.01874234,-99999.0,'11111222,11111222,99999999' 
TABS,ioos:station:wmo:42051:1,2011-09-02T03:00:00Z,29.6350,-93.6417,2.0,267.510032,34.07215872,-99999.0,'11111222,11111222,99999999' 
TABS,ioos:station:wmo:42051:1,2011-09-02T03:30:00Z,29.6350,-93.6417,2.0,259.2574593,29.88368284,-99999.0,'11111222,11111222,99999999' 
TABS,ioos:station:wmo:42051:1,2011-09-02T04:00:00Z,29.6350,-93.6417,2.0,261.0656677,33.87091968,-99999.0,'11111222,11111222,99999999' 
TABS,ioos:station:wmo:42051:1,2011-09-02T04:30:00Z,29.6350,-93.6417,2.0,266.016205,33.54102712,-99999.0,'11111222,11111222,99999999' 
TABS,ioos:station:wmo:42051:1,2011-09-02T05:00:00Z,29.6350,-93.6417,2.0,271.9969866,35.59160716,-99999.0,'11111222,11111222,99999999' 
TABS,ioos:station:wmo:42051:1,2011-09-02T05:30:00Z,29.6350,-93.6417,2.0,272.1783669,38.41775241,-99999.0,'11111222,11111222,99999999' 
TABS,ioos:station:wmo:42051:1,2011-09-02T06:00:00Z,29.6350,-93.6417,2.0,264.1718445,33.09102597,-99999.0,'11111222,11111222,99999999' 
TABS,ioos:station:wmo:42051:1,2011-09-02T06:30:00Z,29.6350,-93.6417,2.0,261.7706017,36.05118583,-99999.0,'11111222,11111222,99999999' 
TABS,ioos:station:wmo:42051:1,2011-09-02T07:00:00Z,29.6350,-93.6417,2.0,264.2544567,37.96067571,-99999.0,'11111222,11111222,99999999' 
TABS,ioos:station:wmo:42051:1,2011-09-02T07:30:00Z,29.6350,-93.6417,2.0,268.3187738,34.77496226,-99999.0,'11111222,11111222,99999999' 
TABS,ioos:station:wmo:42051:1,2011-09-02T08:00:00Z,29.6350,-93.6417,2.0,261.7120766,31.9132637,-99999.0,'11111222,11111222,99999999' 
TABS,ioos:station:wmo:42051:1,2011-09-02T08:30:00Z,29.6350,-93.6417,2.0,269.0749937,34.0844378,-99999.0,'11111222,11111222,99999999' 
TABS,ioos:station:wmo:42051:1,2011-09-02T09:00:00Z,29.6350,-93.6417,2.0,275.1501273,33.64580955,-99999.0,'11111222,11111222,99999999' 
TABS,ioos:station:wmo:42051:1,2011-09-02T09:30:00Z,29.6350,-93.6417,2.0,267.1950557,36.58381746,-99999.0,'11111222,11111222,99999999' 
TABS,ioos:station:wmo:42051:1,2011-09-02T10:00:00Z,29.6350,-93.6417,2.0,266.9444787,37.71360099,-99999.0,'11111222,11111222,99999999' 
TABS,ioos:station:wmo:42051:1,2011-09-02T10:30:00Z,29.6350,-93.6417,2.0,268.8516767,37.43751327,-99999.0,'11111222,11111222,99999999' 
TABS,ioos:station:wmo:42051:1,2011-09-02T11:00:00Z,29.6350,-93.6417,2.0,262.7658591,33.99053986,-99999.0,'11111222,11111222,99999999' 
TABS,ioos:station:wmo:42051:1,2011-09-02T11:30:00Z,29.6350,-93.6417,2.0,255.2537479,37.99126873,-99999.0,'11111222,11111222,99999999' 
TABS,ioos:station:wmo:42051:1,2011-09-02T12:00:00Z,29.6350,-93.6417,2.0,256.7423712,37.28359693,-99999.0,'11111222,11111222,99999999' 
TABS,ioos:station:wmo:42051:1,2011-09-02T12:30:00Z,29.6350,-93.6417,2.0,250.7125014,36.99641604,-99999.0,'11111222,11111222,99999999' 
TABS,ioos:station:wmo:42051:1,2011-09-02T13:00:00Z,29.6350,-93.6417,2.0,260.4190684,33.46677307,-99999.0,'11111222,11111222,99999999' 
TABS,ioos:station:wmo:42051:1,2011-09-02T13:30:00Z,29.6350,-93.6417,2.0,257.2344725,30.50393581,-99999.0,'11111222,11111222,99999999' 
TABS,ioos:station:wmo:42051:1,2011-09-02T14:00:00Z,29.6350,-93.6417,2.0,255.0179815,36.74914965,-99999.0,'11111222,11111222,99999999' 
TABS,ioos:station:wmo:42051:1,2011-09-02T14:30:00Z,29.6350,-93.6417,2.0,253.4561199,31.71278764,-99999.0,'11111222,11111222,99999999' 
TABS,ioos:station:wmo:42051:1,2011-09-02T15:00:00Z,29.6350,-93.6417,2.0,253.7872987,33.02321153,-99999.0,'11111222,11111222,99999999' 
TABS,ioos:station:wmo:42051:1,2011-09-02T15:30:00Z,29.6350,-93.6417,2.0,251.8324081,33.83674039,-99999.0,'11111222,11111222,99999999' 
TABS,ioos:station:wmo:42051:1,2011-09-02T16:00:00Z,29.6350,-93.6417,2.0,251.6721698,25.28245439,-99999.0,'11111222,11111222,99999999' 
TABS,ioos:station:wmo:42051:1,2011-09-02T16:30:00Z,29.6350,-93.6417,2.0,261.4767931,28.47444468,-99999.0,'11111222,11111222,99999999' 
TABS,ioos:station:wmo:42051:1,2011-09-02T17:00:00Z,29.6350,-93.6417,2.0,253.791186,32.31441319,-99999.0,'11111222,11111222,99999999' 
TABS,ioos:station:wmo:42051:1,2011-09-02T17:30:00Z,29.6350,-93.6417,2.0,255.7968118,28.36708656,-99999.0,'11111222,11111222,99999999' 
TABS,ioos:station:wmo:42051:1,2011-09-02T18:00:00Z,29.6350,-93.6417,2.0,261.2148887,35.03094204,-99999.0,'11111222,11111222,99999999' 
TABS,ioos:station:wmo:42051:1,2011-09-02T18:30:00Z,29.6350,-93.6417,2.0,261.7887598,36.13036396,-99999.0,'11111222,11111222,99999999' 
TABS,ioos:station:wmo:42051:1,2011-09-02T19:00:00Z,29.6350,-93.6417,2.0,265.0384349,34.68996397,-99999.0,'11111222,11111222,99999999' 
TABS,ioos:station:wmo:42051:1,2011-09-02T19:30:00Z,29.6350,-93.6417,2.0,268.7048923,35.84915201,-99999.0,'11111222,11111222,99999999' 
TABS,ioos:station:wmo:42051:1,2011-09-02T20:00:00Z,29.6350,-93.6417,2.0,266.2127255,39.21562189,-99999.0,'11111222,11111222,99999999' 
TABS,ioos:station:wmo:42051:1,2011-09-02T20:30:00Z,29.6350,-93.6417,2.0,268.230105,38.53837698,-99999.0,'11111222,11111222,99999999' 
TABS,ioos:station:wmo:42051:1,2011-09-02T21:00:00Z,29.6350,-93.6417,2.0,270.942937,39.51534639,-99999.0,'11111222,11111222,99999999' 
TABS,ioos:station:wmo:42051:1,2011-09-02T21:30:00Z,29.6350,-93.6417,2.0,266.8384013,42.61484483,-99999.0,'11111222,11111222,99999999' 
TABS,ioos:station:wmo:42051:1,2011-09-02T22:00:00Z,29.6350,-93.6417,2.0,264.4372278,43.84646052,-99999.0,'11111222,11111222,99999999' 
TABS,ioos:station:wmo:42051:1,2011-09-02T22:30:00Z,29.6350,-93.6417,2.0,265.5320421,45.95964317,-99999.0,'11111222,11111222,99999999' 
TABS,ioos:station:wmo:42051:1,2011-09-02T23:00:00Z,29.6350,-93.6417,2.0,263.7088257,46.08751024,-99999.0,'11111222,11111222,99999999' 
TABS,ioos:station:wmo:42051:1,2011-09-02T23:30:00Z,29.6350,-93.6417,2.0,269.1798245,44.03450692,-99999.0,'11111222,11111222,99999999' 
TABS,ioos:station:wmo:42051:1,2011-09-03T00:00:00Z,29.6350,-93.6417,2.0,266.6871662,47.94009282,-99999.0,'11111222,11111222,99999999' 
TABS,ioos:station:wmo:42051:1,2011-09-03T00:30:00Z,29.6350,-93.6417,2.0,262.5625988,44.19175036,-99999.0,'11111222,11111222,99999999' 
TABS,ioos:station:wmo:42051:1,2011-09-03T01:00:00Z,29.6350,-93.6417,2.0,264.2851288,44.18960172,-99999.0,'11111222,11111222,99999999' 
TABS,ioos:station:wmo:42051:1,2011-09-03T01:30:00Z,29.6350,-93.6417,2.0,262.0586937,41.11424084,-99999.0,'11111222,11111222,99999999' 
TABS,ioos:station:wmo:42051:1,2011-09-03T02:00:00Z,29.6350,-93.6417,2.0,263.5375104,39.45064765,-99999.0,'11111222,11111222,99999999' 
TABS,ioos:station:wmo:42051:1,2011-09-03T02:30:00Z,29.6350,-93.6417,2.0,262.0125635,39.0790852,-99999.0,'11111222,11111222,99999999' 
TABS,ioos:station:wmo:42051:1,2011-09-03T03:00:00Z,29.6350,-93.6417,2.0,266.2462856,35.74667117,-99999.0,'11111222,11111222,99999999' 
TABS,ioos:station:wmo:42051:1,2011-09-03T03:30:00Z,29.6350,-93.6417,2.0,257.9427093,40.16603665,-99999.0,'11111222,11111222,99999999' 
TABS,ioos:station:wmo:42051:1,2011-09-03T04:00:00Z,29.6350,-93.6417,2.0,260.1013423,31.76280372,-99999.0,'11111222,11111222,99999999' 
TABS,ioos:station:wmo:42051:1,2011-09-03T04:30:00Z,29.6350,-93.6417,2.0,258.9351769,33.86956746,-99999.0,'11111222,11111222,99999999' 
TABS,ioos:station:wmo:42051:1,2011-09-03T05:00:00Z,29.6350,-93.6417,2.0,256.3502075,39.15584375,-99999.0,'11111222,11111222,99999999' 
TABS,ioos:station:wmo:42051:1,2011-09-03T05:30:00Z,29.6350,-93.6417,2.0,257.5866972,30.56447938,-99999.0,'11111222,11111222,99999999' 
TABS,ioos:station:wmo:42051:1,2011-09-03T06:00:00Z,29.6350,-93.6417,2.0,258.6538906,28.26230175,-99999.0,'11111222,11111222,99999999' 
TABS,ioos:station:wmo:42051:1,2011-09-03T06:30:00Z,29.6350,-93.6417,2.0,261.051358,36.64600933,-99999.0,'11111222,11111222,99999999' 
TABS,ioos:station:wmo:42051:1,2011-09-03T07:00:00Z,29.6350,-93.6417,2.0,262.9624438,35.58808789,-99999.0,'11111222,11111222,99999999' 
TABS,ioos:station:wmo:42051:1,2011-09-03T07:30:00Z,29.6350,-93.6417,2.0,265.2484819,34.16740259,-99999.0,'11111222,11111222,99999999' 
TABS,ioos:station:wmo:42051:1,2011-09-03T08:00:00Z,29.6350,-93.6417,2.0,265.2594848,34.36754428,-99999.0,'11111222,11111222,99999999' 
TABS,ioos:station:wmo:42051:1,2011-09-03T08:30:00Z,29.6350,-93.6417,2.0,265.8409786,30.19951159,-99999.0,'11111222,11111222,99999999' 
TABS,ioos:station:wmo:42051:1,2011-09-03T09:00:00Z,29.6350,-93.6417,2.0,257.5641667,31.94956025,-99999.0,'11111222,11111222,99999999' 
TABS,ioos:station:wmo:42051:1,2011-09-03T09:30:00Z,29.6350,-93.6417,2.0,263.1716346,29.18700567,-99999.0,'11111222,11111222,99999999' 
TABS,ioos:station:wmo:42051:1,2011-09-03T10:00:00Z,29.6350,-93.6417,2.0,272.0603443,22.53456234,-99999.0,'11111222,11111222,99999999' 
TABS,ioos:station:wmo:42051:1,2011-09-03T10:30:00Z,29.6350,-93.6417,2.0,253.86334,25.15085883,-99999.0,'11111222,11111222,99999999' 
TABS,ioos:station:wmo:42051:1,2011-09-03T11:00:00Z,29.6350,-93.6417,2.0,250.1907012,23.60686553,-99999.0,'11111222,11111222,99999999' 
TABS,ioos:station:wmo:42051:1,2011-09-03T11:30:00Z,29.6350,-93.6417,2.0,254.3916861,21.22257524,-99999.0,'11111222,11111222,99999999' 
TABS,ioos:station:wmo:42051:1,2011-09-03T12:00:00Z,29.6350,-93.6417,2.0,251.2781975,12.64926875,-99999.0,'11111222,11111222,99999999' 
TABS,ioos:station:wmo:42051:1,2011-09-03T12:30:00Z,29.6350,-93.6417,2.0,242.612221,14.95636319,-99999.0,'11111222,11111222,99999999' 
TABS,ioos:station:wmo:42051:1,2011-09-03T13:00:00Z,29.6350,-93.6417,2.0,239.5389818,11.914466,-99999.0,'11111222,11111222,99999999' 
TABS,ioos:station:wmo:42051:1,2011-09-03T13:30:00Z,29.6350,-93.6417,2.0,249.5261722,12.17931443,-99999.0,'11111222,11111222,99999999' 
TABS,ioos:station:wmo:42051:1,2011-09-03T14:00:00Z,29.6350,-93.6417,2.0,258.0812216,7.941190087,-99999.0,'11133222,11111222,99999999' 
TABS,ioos:station:wmo:42051:1,2011-09-03T14:30:00Z,29.6350,-93.6417,2.0,274.5070173,6.108886969,-99999.0,'11133222,11111222,99999999' 
TABS,ioos:station:wmo:42051:1,2011-09-03T15:00:00Z,29.6350,-93.6417,2.0,270.5025121,10.27039434,-99999.0,'11111222,11111222,99999999' 
TABS,ioos:station:wmo:42051:1,2011-09-03T15:30:00Z,29.6350,-93.6417,2.0,249.5866104,15.94105392,-99999.0,'11111222,11111222,99999999' 
TABS,ioos:station:wmo:42051:1,2011-09-03T16:00:00Z,29.6350,-93.6417,2.0,254.7354346,27.72818963,-99999.0,'11111222,11111222,99999999' 
TABS,ioos:station:wmo:42051:1,2011-09-03T16:30:00Z,29.6350,-93.6417,2.0,237.8677768,19.6852686,-99999.0,'11111222,11111222,99999999' 
TABS,ioos:station:wmo:42051:1,2011-09-03T17:00:00Z,29.6350,-93.6417,2.0,245.4580185,20.39223872,-99999.0,'11111222,11111222,99999999' 
TABS,ioos:station:wmo:42051:1,2011-09-03T17:30:00Z,29.6350,-93.6417,2.0,218.33304,16.99354289,-99999.0,'11111222,11111222,99999999' 
TABS,ioos:station:wmo:42051:1,2011-09-03T18:00:00Z,29.6350,-93.6417,2.0,221.0026445,15.31783601,-99999.0,'11111222,11111222,99999999' 
TABS,ioos:station:wmo:42051:1,2011-09-03T18:30:00Z,29.6350,-93.6417,2.0,242.1850509,13.33013503,-99999.0,'11111222,11111222,99999999' 
TABS,ioos:station:wmo:42051:1,2011-09-03T19:00:00Z,29.6350,-93.6417,2.0,245.5101209,7.285416941,-99999.0,'11133222,11111222,99999999' 
TABS,ioos:station:wmo:42051:1,2011-09-03T19:30:00Z,29.6350,-93.6417,2.0,242.9406743,10.37574094,-99999.0,'11111222,11111222,99999999' 
TABS,ioos:station:wmo:42051:1,2011-09-03T20:00:00Z,29.6350,-93.6417,2.0,255.8978378,6.361713606,-99999.0,'11133222,11111222,99999999' 
TABS,ioos:station:wmo:42051:1,2011-09-03T20:30:00Z,29.6350,-93.6417,2.0,270.0582953,9.900005051,-99999.0,'11133222,11111222,99999999' 
TABS,ioos:station:wmo:42051:1,2011-09-03T21:00:00Z,29.6350,-93.6417,2.0,262.7971005,14.67580321,-99999.0,'11111222,11111222,99999999' 
TABS,ioos:station:wmo:42051:1,2011-09-03T21:30:00Z,29.6350,-93.6417,2.0,275.0101598,14.88687005,-99999.0,'11111222,11111222,99999999' 
TABS,ioos:station:wmo:42051:1,2011-09-03T22:00:00Z,29.6350,-93.6417,2.0,260.6459821,20.79650932,-99999.0,'11111222,11111222,99999999' 
TABS,ioos:station:wmo:42051:1,2011-09-03T22:30:00Z,29.6350,-93.6417,2.0,261.0103516,21.50412054,-99999.0,'11111222,11111222,99999999' 
TABS,ioos:station:wmo:42051:1,2011-09-03T23:00:00Z,29.6350,-93.6417,2.0,269.1579623,27.9130113,-99999.0,'11111222,11111222,99999999' 
TABS,ioos:station:wmo:42051:1,2011-09-03T23:30:00Z,29.6350,-93.6417,2.0,270.1228473,23.40005342,-99999.0,'11111222,11111222,99999999' 
TABS,ioos:station:wmo:42051:1,2011-09-04T00:00:00Z,29.6350,-93.6417,2.0,266.6501143,27.72736554,-99999.0,'11111222,11111222,99999999' 
TABS,ioos:station:wmo:42051:1,2011-09-04T00:30:00Z,29.6350,-93.6417,2.0,276.416602,27.47207491,-99999.0,'11111222,11111222,99999999' 
TABS,ioos:station:wmo:42051:1,2011-09-04T01:00:00Z,29.6350,-93.6417,2.0,272.4002553,27.46408746,-99999.0,'11111222,11111222,99999999' 
TABS,ioos:station:wmo:42051:1,2011-09-04T01:30:00Z,29.6350,-93.6417,2.0,277.5051358,23.58200161,-99999.0,'11111222,11111222,99999999' 
TABS,ioos:station:wmo:42051:1,2011-09-04T02:00:00Z,29.6350,-93.6417,2.0,271.5249328,20.29718453,-99999.0,'11111222,11111222,99999999' 
TABS,ioos:station:wmo:42051:1,2011-09-04T02:30:00Z,29.6350,-93.6417,2.0,268.9380557,17.27296442,-99999.0,'11111222,11111222,99999999' 
TABS,ioos:station:wmo:42051:1,2011-09-04T03:00:00Z,29.6350,-93.6417,2.0,264.8668599,19.33754121,-99999.0,'11111222,11111222,99999999' 
TABS,ioos:station:wmo:42051:1,2011-09-04T03:30:00Z,29.6350,-93.6417,2.0,259.1362432,24.40739437,-99999.0,'11111222,11111222,99999999' 
TABS,ioos:station:wmo:42051:1,2011-09-04T04:00:00Z,29.6350,-93.6417,2.0,257.5930529,25.92541803,-99999.0,'11111222,11111222,99999999' 
TABS,ioos:station:wmo:42051:1,2011-09-04T04:30:00Z,29.6350,-93.6417,2.0,257.1209153,25.93235045,-99999.0,'11111222,11111222,99999999' 
TABS,ioos:station:wmo:42051:1,2011-09-04T05:00:00Z,29.6350,-93.6417,2.0,246.0741799,26.70462507,-99999.0,'11111222,11111222,99999999' 
TABS,ioos:station:wmo:42051:1,2011-09-04T05:30:00Z,29.6350,-93.6417,2.0,263.3044089,25.13138476,-99999.0,'11111222,11111222,99999999' 
TABS,ioos:station:wmo:42051:1,2011-09-04T06:00:00Z,29.6350,-93.6417,2.0,258.0295831,25.02411837,-99999.0,'11111222,11111222,99999999' 
TABS,ioos:station:wmo:42051:1,2011-09-04T06:30:00Z,29.6350,-93.6417,2.0,269.5380591,17.38056386,-99999.0,'11111222,11111222,99999999' 
TABS,ioos:station:wmo:42051:1,2011-09-04T07:00:00Z,29.6350,-93.6417,2.0,264.6380226,15.5178929,-99999.0,'11111222,11111222,99999999' 
TABS,ioos:station:wmo:42051:1,2011-09-04T07:30:00Z,29.6350,-93.6417,2.0,273.2729745,15.76570963,-99999.0,'11111222,11111222,99999999' 
TABS,ioos:station:wmo:42051:1,2011-09-04T08:00:00Z,29.6350,-93.6417,2.0,262.4497891,17.73373339,-99999.0,'11111222,11111222,99999999' 
TABS,ioos:station:wmo:42051:1,2011-09-04T08:30:00Z,29.6350,-93.6417,2.0,255.2766384,16.99811754,-99999.0,'11111222,11111222,99999999' 
TABS,ioos:station:wmo:42051:1,2011-09-04T09:00:00Z,29.6350,-93.6417,2.0,253.7991559,14.19360772,-99999.0,'11111222,11111222,99999999' 
TABS,ioos:station:wmo:42051:1,2011-09-04T09:30:00Z,29.6350,-93.6417,2.0,273.7998463,10.41288625,-99999.0,'11111222,11111222,99999999' 
TABS,ioos:station:wmo:42051:1,2011-09-04T10:00:00Z,29.6350,-93.6417,2.0,261.5630055,17.44881658,-99999.0,'11111222,11111222,99999999' 
TABS,ioos:station:wmo:42051:1,2011-09-04T10:30:00Z,29.6350,-93.6417,2.0,261.8591123,15.60726113,-99999.0,'11111222,11111222,99999999' 
TABS,ioos:station:wmo:42051:1,2011-09-04T11:00:00Z,29.6350,-93.6417,2.0,257.0695936,15.95454167,-99999.0,'11111222,11111222,99999999' 
TABS,ioos:station:wmo:42051:1,2011-09-04T11:30:00Z,29.6350,-93.6417,2.0,272.3274089,16.99401365,-99999.0,'11111222,11111222,99999999' 
TABS,ioos:station:wmo:42051:1,2011-09-04T12:00:00Z,29.6350,-93.6417,2.0,262.7363513,15.42376413,-99999.0,'11111222,11111222,99999999' 
TABS,ioos:station:wmo:42051:1,2011-09-04T12:30:00Z,29.6350,-93.6417,2.0,246.8877644,16.4829154,-99999.0,'11111222,11111222,99999999' 
TABS,ioos:station:wmo:42051:1,2011-09-04T13:00:00Z,29.6350,-93.6417,2.0,252.7476754,14.39775677,-99999.0,'11111222,11111222,99999999' 
TABS,ioos:station:wmo:42051:1,2011-09-04T13:30:00Z,29.6350,-93.6417,2.0,281.8204376,9.031505965,-99999.0,'11133222,11111222,99999999' 
TABS,ioos:station:wmo:42051:1,2011-09-04T14:00:00Z,29.6350,-93.6417,2.0,269.2515218,13.02110978,-99999.0,'11111222,11111222,99999999' 
TABS,ioos:station:wmo:42051:1,2011-09-04T14:30:00Z,29.6350,-93.6417,2.0,258.5466488,15.7128737,-99999.0,'11111222,11111222,99999999' 
TABS,ioos:station:wmo:42051:1,2011-09-04T15:00:00Z,29.6350,-93.6417,2.0,266.2207666,8.648803385,-99999.0,'11133222,11111222,99999999' 
TABS,ioos:station:wmo:42051:1,2011-09-04T15:30:00Z,29.6350,-93.6417,2.0,250.3259696,13.6041354,-99999.0,'11111222,11111222,99999999' 
TABS,ioos:station:wmo:42051:1,2011-09-04T16:00:00Z,29.6350,-93.6417,2.0,275.2556083,9.389467504,-99999.0,'11133222,11111222,99999999' 
TABS,ioos:station:wmo:42051:1,2011-09-04T16:30:00Z,29.6350,-93.6417,2.0,256.9272862,9.947793725,-99999.0,'11133222,11111222,99999999' 